map of RAO home
Great Circle Mapper logo
RAO - Airport
Location
City:  Riberão Preto, São Paulo, Brazil
Name:Leite Lopes
ICAO / IATA:SBRP / RAO

Details
Type:Airport (Aerodrome, Airfield)
Use:Public/Civil
Latitude:21°08'03"S (-21.134166)
Longitude:47°46'27"W (-47.774188)
Datum:WGS 1984
Elevation:1802 ft (549 m)
Variation:20.93°W (WMM2015 magnetic declination)
-0.12° annual change
Runways:1
Longest:6890 × 115 ft (2100 × 35 m), paved

Time
Time Zone:UTC-3 (DST-2)
Local Time:

Weather
METAR:SBRP 042200Z 16010KT CAVOK 27/15 Q1014
TAF:SBRP 042128Z 0500/0524 20005KT CAVOK TN16/0508Z TX30/0518Z
BECMG 0504/0506 00000KT PROB30 0509/0512 5000 BR
BECMG 0512/0514 14005KT SCT030
BECMG 0519/0521 CAVOK
RMK PGN

Related Locations
Nearby:
Farthest:MMD: 12100 mi / 19474 km
Minami Daito Jima, Okinawa, JP

Find:

   beyond  
but within

Other Information
Maps:
NOTAMs:
Links:
Sources:

  
flag of Brazil
flag of São Paulo
  

Sectional Chart

Flight Planning
at skyvector.com

Satellite Image

Google Maps Satellite view

 

Copyright © 2004-2015 Karl L. Swartz. All rights reserved.
The Great Circle Mapper name and logo are trademarks of the Great Circle Mapper.
All other trademarks mentioned herein belong to their respective owners.
Please see credits for attibutions and further copyright information.

  Follow gcmap on Facebook Follow gcmap on Twitter Follow gcmap on Google+

hCard Microformat

Geo Microformat